User: anonymous   Login
Location: Aalen
(48.8330°N, 10.1000°E)
Time: 22:22:02
(UTC+01:00)
Language:

UWE-3 - Orbit

View from above orbital plane
View from above orbital plane
View from above satellite
View from above satellite

Ground track
Ground track

The orbit data is extracted from the following two-line orbital elements,

1 39446U 13066AG  23341.38499843  .00002222  00000-0  26543-3 0  9994
2 39446  97.7580 290.9065 0064584 131.0233 229.6590 14.83722667540092
Epoch (UTC): 07 December 2023 09:14:23
Eccentricity: 0.0064584
inclination: 97.7580°
perigee height: 572 km
apogee height: 663 km
right ascension of ascending node: 290.9065°
argument of perigee: 131.0233°
revolutions per day: 14.83722667
mean anomaly at epoch: 229.6590°
orbit number at epoch: 54009

The dashed part of the orbit path shows where the satellite is in the earth's shadow,  

DLR